Regional Weather Roundup
Issued by NWS

Home | Current Version | Previous Version | Text Only | Print | Product List | Glossary Off
Versions: 1 2 3 4 5 6 7 8 9 10 11 12 13 14 15 16 17 18 19 20 21 22 23 24 25 26 27 28 29 30 31 32 33 34 35 36 37 38 39 40 41 42 43 44 45 46 47 48 49 50

000
ASUS44 KMEG 280300
RWRTN
TENNESSEE HOURLY STATE WEATHER ROUNDUP
NATIONAL WEATHER SERVICE MEMPHIS TN
1000 PM CDT WED MAY 27 2015

TNZ002-004-019-021-049-052-054-088>092-280400-
WEST TENNESSEE

CITY           SKY/WX    TMP DP  RH WIND       PRES   REMARKS
MEMPHIS INTL   MOCLDY    72  67  84 SE5       30.12R
NWS MEMPHIS      N/A     70 N/A N/A MISG        N/A
JACKSON        CLOUDY    70  65  84 SE5       30.14R
DYERSBURG      MOCLDY    72  55  56 SE3       30.13R
PARIS          CLEAR     66  66 100 SE5       30.16R
LEXINGTON      CLEAR     66  66 100 SE3       30.15S
$$

TNZ008-025-027-028-033-062-065-066-280400-
NORTH MIDDLE TENNESSEE

CITY           SKY/WX    TMP DP  RH WIND       PRES   REMARKS
NASHVILLE      CLOUDY    69  67  93 S6        30.20R
CLARKSVILLE    CLOUDY    68  66  93 SE5       30.16R
COOKEVILLE     CLEAR     68  66  94 SE3       30.21R
CROSSVILLE     CLOUDY    68  62  81 SW3       30.26R
$$

TNZ061-075-076-078-094-096-097-280400-
SOUTH MIDDLE TENNESSEE

CITY           SKY/WX    TMP DP  RH WIND       PRES   REMARKS
FAYETTEVILLE     N/A    N/A N/A N/A MISG      30.25R
TULLAHOMA      CLOUDY    68  66  94 S8        30.27R
WINCHESTER     CLOUDY    66  64  94 CALM      30.26R
SHELBYVILLE    CLOUDY    70  70 100 S6        30.24R
$$

TNZ017-018-042-046-047-280400-
NORTHEAST TENNESSEE

CITY           SKY/WX    TMP DP  RH WIND       PRES   REMARKS
TRI CITIES     PTCLDY    68  60  75 CALM      30.23R
ELIZABETHTON   MOCLDY    66  61  82 CALM      30.25R
$$

TNZ012-013-036-069-073-074-280400-
CENTRAL EAST TENNESSEE

CITY           SKY/WX    TMP DP  RH WIND       PRES   REMARKS
KNOXVILLE      CLOUDY    75  62  64 SW3       30.20R
OAK RIDGE      CLOUDY    74  67  78 CALM      30.21R
GATLINBURG       N/A     70  61  73 CALM      30.20R
$$

TNZ083-085-099-280400-
SOUTHEAST TENNESSEE

CITY           SKY/WX    TMP DP  RH WIND       PRES   REMARKS
CHATTANOOGA    CLOUDY    76  66  71 SW5       30.21R
$$

SKY/WX REPORTED AS FAIR MEANS FEW OR NO CLOUDS BELOW
12 THOUSAND FEET.



USA.gov is the U.S. government's official web portal to all federal, state and local government web resources and services.